Meteo pe oră la Bolshie Shapy

Astăzi, 19 Mai, Miercuri

Timp Temperatura Precipitaţii Vânt Presiune Umiditate
00:00 +17°C° 0 mm 3 m/s 753 mmHg 69%
01:00 +17°C° 0 mm 3 m/s 753 mmHg 69%
02:00 +16°C° 0 mm 3 m/s 753 mmHg 70%
03:00 +16°C° 0 mm 3 m/s 753 mmHg 70%
04:00 +17°C° 0 mm 3 m/s 753 mmHg 70%
05:00 +18°C° 0 mm 3 m/s 753 mmHg 69%
06:00 +18°C° 0 mm 4 m/s 753 mmHg 68%
07:00 +20°C° 0 mm 4 m/s 753 mmHg 61%
08:00 +22°C° 0 mm 4 m/s 753 mmHg 55%
09:00 +25°C° 0 mm 5 m/s 753 mmHg 48%
10:00 +26°C° 0 mm 5 m/s 753 mmHg 45%
11:00 +27°C° 0 mm 5 m/s 753 mmHg 41%
12:00 +28°C° 0 mm 5 m/s 753 mmHg 37%
13:00 +28°C° 0 mm 5 m/s 753 mmHg 36%
14:00 +28°C° 0 mm 5 m/s 753 mmHg 36%
15:00 +28°C° 0 mm 5 m/s 753 mmHg 36%
16:00 +27°C° 0 mm 4 m/s 752 mmHg 41%
17:00 +26°C° 0 mm 4 m/s 752 mmHg 46%
18:00 +25°C° 0 mm 4 m/s 752 mmHg 51%
19:00 +22°C° 0 mm 4 m/s 752 mmHg 58%
20:00 +20°C° 0 mm 3 m/s 752 mmHg 65%
21:00 +19°C° 0 mm 3 m/s 752 mmHg 72%
22:00 +18°C° 0 mm 3 m/s 752 mmHg 72%
23:00 +18°C° 0 mm 3 m/s 752 mmHg 71%

Mâine, 20 Mai, Joi

Timp Temperatura Precipitaţii Vânt Presiune Umiditate
00:00 +18°C° 0 mm 4 m/s 752 mmHg 71%
01:00 +17°C° 0 mm 4 m/s 752 mmHg 73%
02:00 +17°C° 0 mm 3 m/s 752 mmHg 74%
03:00 +16°C° 0 mm 3 m/s 752 mmHg 76%
04:00 +17°C° 0 mm 3 m/s 752 mmHg 73%
05:00 +18°C° 0 mm 4 m/s 752 mmHg 71%
06:00 +19°C° 0 mm 4 m/s 752 mmHg 68%
07:00 +20°C° 0 mm 4 m/s 752 mmHg 61%
08:00 +22°C° 0 mm 5 m/s 752 mmHg 53%
09:00 +25°C° 0 mm 5 m/s 752 mmHg 46%
10:00 +26°C° 0 mm 5 m/s 751 mmHg 43%
11:00 +27°C° 0 mm 6 m/s 751 mmHg 41%
12:00 +27°C° 0 mm 6 m/s 751 mmHg 39%
13:00 +27°C° 0 mm 6 m/s 751 mmHg 38%
14:00 +27°C° 0 mm 6 m/s 751 mmHg 37%
15:00 +27°C° 0 mm 6 m/s 751 mmHg 37%
16:00 +26°C° 0 mm 5 m/s 750 mmHg 41%
17:00 +26°C° 0 mm 5 m/s 750 mmHg 45%
18:00 +25°C° 0 mm 4 m/s 750 mmHg 49%
19:00 +22°C° 0 mm 4 m/s 750 mmHg 52%
20:00 +20°C° 0 mm 4 m/s 750 mmHg 55%
21:00 +19°C° 0 mm 4 m/s 750 mmHg 58%
22:00 +18°C° 0 mm 3 m/s 750 mmHg 61%
23:00 +17°C° 0 mm 3 m/s 750 mmHg 64%

Poimâine, 21 Mai, Vineri

Timp Temperatura Precipitaţii Vânt Presiune Umiditate
00:00 +16°C° 0 mm 2 m/s 749 mmHg 66%
01:00 +14°C° 0 mm 3 m/s 749 mmHg 68%
02:00 +14°C° 0 mm 3 m/s 749 mmHg 70%
03:00 +13°C° 0 mm 3 m/s 749 mmHg 72%
04:00 +14°C° 0 mm 3 m/s 749 mmHg 70%
05:00 +16°C° 0 mm 3 m/s 749 mmHg 67%
06:00 +17°C° 0 mm 3 m/s 749 mmHg 64%
07:00 +18°C° 0 mm 3 m/s 749 mmHg 60%
08:00 +20°C° 0 mm 3 m/s 749 mmHg 56%
09:00 +21°C° 0 mm 3 m/s 749 mmHg 52%
10:00 +22°C° 0 mm 4 m/s 748 mmHg 49%
11:00 +23°C° 0 mm 4 m/s 748 mmHg 45%
12:00 +26°C° 0 mm 4 m/s 748 mmHg 42%
13:00 +26°C° 0 mm 4 m/s 748 mmHg 43%
14:00 +25°C° 0 mm 4 m/s 747 mmHg 45%
15:00 +25°C° 0 mm 4 m/s 747 mmHg 46%
16:00 +23°C° 0.5 mm 4 m/s 747 mmHg 55%
17:00 +21°C° 0.5 mm 4 m/s 747 mmHg 65%
18:00 +20°C° 0.5 mm 3 m/s 747 mmHg 74%
19:00 +18°C° 0.6 mm 3 m/s 748 mmHg 81%
20:00 +17°C° 0.6 mm 3 m/s 748 mmHg 87%
21:00 +14°C° 0.6 mm 3 m/s 748 mmHg 94%
22:00 +14°C° 0 mm 3 m/s 749 mmHg 94%
23:00 +13°C° 0 mm 3 m/s 749 mmHg 94%

22 Mai, Sâmbătă

Timp Temperatura Precipitaţii Vânt Presiune Umiditate
00:00 +12°C° 0 mm 4 m/s 749 mmHg 94%
01:00 +12°C° 0 mm 3 m/s 749 mmHg 95%
02:00 +11°C° 0 mm 3 m/s 749 mmHg 96%
03:00 +11°C° 0 mm 3 m/s 750 mmHg 96%
04:00 +11°C° 0 mm 3 m/s 750 mmHg 95%
05:00 +12°C° 0 mm 3 m/s 751 mmHg 93%
06:00 +12°C° 0 mm 3 m/s 751 mmHg 92%
07:00 +12°C° 0 mm 3 m/s 752 mmHg 90%
08:00 +13°C° 0 mm 3 m/s 752 mmHg 88%
09:00 +13°C° 0 mm 3 m/s 752 mmHg 86%
10:00 +14°C° 0 mm 3 m/s 753 mmHg 81%
11:00 +16°C° 0 mm 3 m/s 753 mmHg 76%
12:00 +17°C° 0 mm 2 m/s 753 mmHg 71%
13:00 +18°C° 0.1 mm 2 m/s 754 mmHg 66%
14:00 +19°C° 0.1 mm 2 m/s 754 mmHg 61%
15:00 +20°C° 0.1 mm 2 m/s 754 mmHg 56%
16:00 +21°C° 0 mm 1 m/s 754 mmHg 59%
17:00 +20°C° 0 mm 1 m/s 754 mmHg 61%
18:00 +20°C° 0 mm 1 m/s 754 mmHg 63%
19:00 +19°C° 0 mm 1 m/s 754 mmHg 66%
20:00 +16°C° 0 mm 1 m/s 754 mmHg 68%
21:00 +15°C° 0 mm 1 m/s 754 mmHg 71%
22:00 +15°C° 0 mm 1 m/s 755 mmHg 73%
23:00 +14°C° 0 mm 1 m/s 755 mmHg 75%

23 Mai, Duminică

Timp Temperatura Precipitaţii Vânt Presiune Umiditate
00:00 +14°C° 0 mm 1 m/s 755 mmHg 77%
01:00 +14°C° 0.3 mm 1 m/s 756 mmHg 83%
02:00 +13°C° 0.3 mm 1 m/s 756 mmHg 88%
03:00 +13°C° 0.3 mm 1 m/s 756 mmHg 93%
04:00 +14°C° 0 mm 1 m/s 756 mmHg 92%
05:00 +14°C° 0 mm 1 m/s 756 mmHg 91%
06:00 +15°C° 0 mm 1 m/s 757 mmHg 90%
07:00 +16°C° 0 mm 2 m/s 756 mmHg 84%
08:00 +16°C° 0 mm 3 m/s 756 mmHg 79%
09:00 +17°C° 0 mm 4 m/s 756 mmHg 74%
10:00 +17°C° 0.2 mm 4 m/s 756 mmHg 77%
11:00 +17°C° 0.2 mm 4 m/s 756 mmHg 79%
12:00 +17°C° 0.2 mm 4 m/s 755 mmHg 82%
13:00 +17°C° 0.1 mm 4 m/s 755 mmHg 84%
14:00 +16°C° 0.1 mm 3 m/s 755 mmHg 87%
15:00 +16°C° 0.1 mm 3 m/s 754 mmHg 89%
16:00 +17°C° 0 mm 4 m/s 754 mmHg 88%
17:00 +17°C° 0 mm 4 m/s 753 mmHg 87%
18:00 +17°C° 0 mm 4 m/s 753 mmHg 85%
19:00 +17°C° 0 mm 4 m/s 753 mmHg 89%
20:00 +15°C° 0 mm 4 m/s 752 mmHg 92%
21:00 +15°C° 0 mm 4 m/s 752 mmHg 95%
22:00 +15°C° 0 mm 4 m/s 752 mmHg 94%
23:00 +17°C° 0 mm 4 m/s 751 mmHg 92%

24 Mai, Luni

Timp Temperatura Precipitaţii Vânt Presiune Umiditate
00:00 +17°C° 0 mm 4 m/s 751 mmHg 91%
01:00 +17°C° 0 mm 4 m/s 750 mmHg 88%
02:00 +17°C° 0 mm 4 m/s 750 mmHg 86%
03:00 +18°C° 0 mm 4 m/s 750 mmHg 83%
04:00 +18°C° 0 mm 4 m/s 750 mmHg 81%
05:00 +19°C° 0 mm 3 m/s 749 mmHg 79%
06:00 +19°C° 0 mm 3 m/s 749 mmHg 77%
07:00 +21°C° 0 mm 4 m/s 749 mmHg 71%
08:00 +22°C° 0 mm 4 m/s 748 mmHg 66%
09:00 +25°C° 0 mm 5 m/s 747 mmHg 60%
10:00 +27°C° 0 mm 5 m/s 747 mmHg 55%
11:00 +28°C° 0 mm 6 m/s 747 mmHg 50%
12:00 +29°C° 0 mm 6 m/s 746 mmHg 45%
13:00 +30°C° 0 mm 6 m/s 746 mmHg 45%
14:00 +30°C° 0 mm 6 m/s 746 mmHg 45%
15:00 +32°C° 0 mm 6 m/s 746 mmHg 44%
16:00 +30°C° 0 mm 5 m/s 746 mmHg 51%
17:00 +29°C° 0 mm 5 m/s 746 mmHg 58%
18:00 +27°C° 0 mm 4 m/s 746 mmHg 65%
19:00 +25°C° 0.1 mm 3 m/s 746 mmHg 73%
20:00 +22°C° 0.1 mm 3 m/s 747 mmHg 82%
21:00 +21°C° 0.1 mm 2 m/s 747 mmHg 90%
22:00 +21°C° 0 mm 1 m/s 747 mmHg 92%
23:00 +20°C° 0 mm 1 m/s 747 mmHg 94%
Arată mai mult

Formular de consimțământ

Meteoprog și furnizorii noștri de servicii pot stoca și accesa date personale, precum cookies, identificatori de dispozitiv sau alte tehnologii similare pe dispozitivul dumneavoastră și procesa astfel de date pentru a personaliza conținutul și reclamele, dar și pentru a oferi caracteristici de social media și pentru a analiza traficul.

  • Stocarea și/sau accesarea informațiilor pe dispozitivul dumneavoastră

    Cookies, identificatori de dispozitiv sau alte informații pot fi stocate sau accesate pe dispozitiv în scopurile indicate mai sus.

  • Reclame și conținut personalizat, evaluarea reclamelor și a conținutului, informații despre audiențe și dezvoltarea produselor

    Reclamele și conținutul pot fi personalizate pe baza unui profil. Pot fi adăugate date suplimentare pentru a personaliza mai bine reclamele și conținutul. Performanța reclamelor și conținutului poate fi măsurată. Pot fi obținute informații despre utilizatorii care au văzut reclamele și conținutul. Aceste date pot fi utilizate pentru a dezvolta sau îmbunătăți experiența utilizatorilor, sistemele și software-ul.

Dând clic pe ‘Sunt de acord’, permiteți utilizarea cookie-urilor menționate, a identificatorilor de dispozitiv, balizelor web sau altor tehnologii similare. Setările pot fi modificate din browser-ul dispozitivului dumneavoastră.

În anumite scopuri, interesele legitime pot prima asupra consimțământului. Puteți citi mai multe informații în acest sens în Politica privind Confidențialitatea Datelor și Cookie.